Location: Newark
(45.5000°N, 11.4167°E)
Time: 23:32:00
(UTC+00:00)

Transit 2A Rocket - Pass Details

Date: 03 September 2019
Orbit: 592 x 911 km, 66.7° (Epoch: 22 September)

Event Time Altitude Azimuth Distance (km) Brightness Sun altitude
Rises 14:32:24 0° 180° (S) 3,433 8.7 32.9°
Reaches altitude 10° 14:35:14 10° 169° (S) 2,458 7.9 32.4°
Maximum altitude 14:40:00 29° 112° (ESE) 1,453 6.3 31.7°
Drops below altitude 10° 14:44:28 10° 54° (NE) 2,296 7.0 31.0°
Sets 14:47:02 0° 43° (NE) 3,169 7.7 30.6°
